Regional Weather Roundup
Issued by NWS

Home | Current Version | Previous Version | Graphics & Text | Print | Product List | Glossary On
Versions: 1 2 3 4 5 6 7 8 9 10 11 12 13 14 15 16 17 18 19 20 21 22 23 24 25 26 27 28 29 30 31 32 33 34 35 36 37 38 39 40 41 42 43 44 45 46 47 48 49 50
000
ASUS43 KMKX 260321
RWRWI

WISCONSIN REGIONAL WEATHER ROUNDUP
NATIONAL WEATHER SERVICE MILWAUKEE/SULLIVAN WI
900 PM CST TUE NOV 25 2014

NOTE: "FAIR" INDICATES FEW OR NO CLOUDS BELOW 12,000 FEET WITH NO
SIGNIFICANT WEATHER AND/OR OBSTRUCTIONS TO VISIBILITY.

WIZ001-002-006>008-014>016-023>028-260400-
NORTHWEST WISCONSIN

CITY           SKY/WX    TMP DP  RH WIND       PRES   REMARKS
SUPERIOR ARPT  CLOUDY    18  12  77 SW3       30.07R
ASHLAND        MOCLDY    10   7  87 S3        30.08S
HAYWARD        CLOUDY    16  12  84 CALM      30.04R
SIREN          CLOUDY    20  15  79 CALM      30.05R
CUMBERLAND     CLOUDY    21  16  79 S6        30.03R WCI  14
RICE LAKE      CLOUDY    21  16  79 SE3       30.06R
CHETEK         CLOUDY    21  15  78 CALM      30.05S
LADYSMITH      CLOUDY    20  16  82 CALM      30.06S
EAU CLAIRE     CLOUDY    22  15  75 S7        30.06R WCI  13
MENOMONIE      CLOUDY    24  16  73 SE5       30.05S WCI  18
NEW RICHMOND   CLOUDY    24  17  75 SE5       30.04R WCI  18
OSCEOLA        CLOUDY    24  18  77 SE5       30.07R WCI  18
$$

WIZ003>005-009-010-017-018-260400-
NORTH CENTRAL WISCONSIN

CITY           SKY/WX    TMP DP  RH WIND       PRES   REMARKS
MANITOWISH WTR PTCLDY     4   2  91 CALM      30.03R
ARBOR VITAE    CLEAR      6   3  87 CALM      30.03R FOG
WOODRUFF       CLEAR      6   3  87 CALM      30.03R FOG
RHINELANDER    FOG        4   1  88 CALM      30.03R VSB 3/4
EAGLE RIVER    CLEAR      2  -2  81 CALM      30.03R
LAND O LAKES   CLEAR     -2  -5  86 CALM      30.03S
PHILLIPS       CLOUDY    11   8  91 CALM      30.03R
TOMAHAWK       PTCLDY     3   0  86 CALM      30.04S
MEDFORD        CLOUDY    18  13  82 CALM      30.03S
MERRILL        PTCLDY     5   2  88 CALM      30.06R
$$

WIZ029-030-035-036-043>047-260400-
CENTRAL WISCONSIN

CITY           SKY/WX    TMP DP  RH WIND       PRES   REMARKS
WAUSAU         CLEAR     11   9  92 E5        30.05R WCI   3
MOSINEE        CLEAR     10   9  92 CALM      30.07R
MARSHFIELD     CLOUDY    21  15  78 SW7       30.06R WCI  12
STEVENS POINT  PTCLDY     7   4  89 CALM      30.08S
WAUPACA        CLEAR     12   9  86 CALM      30.12R FOG
WAUTOMA        CLEAR      5   1  85 CALM      30.12R FOG
WISC RAPIDS    CLOUDY    18  13  80 S6        30.09S WCI  10
CAMP DOUGLAS   MOCLDY    12  12 100 CALM      30.09R
$$

WIZ011>013-019>022-031-037>040-048>050-260400-
NORTHEAST WISCONSIN

CITY           SKY/WX    TMP DP  RH WIND       PRES   REMARKS
ANTIGO         FOG       -6 -10  84 CALM      30.05R VSB 1/2
SHAWANO        CLEAR     17  14  89 CALM      30.11R
OCONTO         CLOUDY    19  17  90 CALM      30.13R
STURGEON BAY   CLOUDY    21  14  73 SW9       30.13R WCI  11
GREEN BAY      PTCLDY    18  15  88 SW5       30.13R WCI  11
MANITOWOC      CLOUDY    22  18  85 SW6       30.15R WCI  14
APPLETON       CLEAR     14  12  92 VRB3      30.11S
CLINTONVILLE   CLEAR     10   9  92 CALM      30.11R
OSHKOSH        PTCLDY    16  11  80 S5        30.13R WCI   9
$$

WIZ032>034-041-042-053>061-260400-
SOUTHWEST WISCONSIN

CITY           SKY/WX    TMP DP  RH WIND       PRES   REMARKS
LA CROSSE      PTCLDY    20  13  74 SW5       30.11R WCI  13
SPARTA         CLOUDY    20  15  79 CALM      30.11R
VIROQUA        PTCLDY    14  12  90 SE7       30.06F WCI   4
BOSCOBEL       CLEAR     11   7  84 CALM      30.12S
PRAIRIE DU CHI CLEAR     16  12  86 CALM      30.12R
PLATTEVILLE    CLEAR     14  12  91 SE7       30.11S WCI   4
$$

WIZ056-057-062-063-064-067-068-260400-
SOUTH CENTRAL WISCONSIN

CITY           SKY/WX    TMP DP  RH WIND       PRES   REMARKS
REEDSBURG      CLEAR     12  10  92 CALM      30.10S
BARABOO/DELLS  CLEAR     12  10  92 S3        30.09F
LONE ROCK      CLEAR      8   1  73 CALM      30.12S
MINERAL POINT  CLEAR     16  12  86 SE5       30.09S WCI   9
MADISON        CLEAR     18  14  84 S6        30.12S WCI  10
MIDDLETON      CLEAR      7   3  84 CALM      30.12S
WATERTOWN      CLOUDY    17  15  91 SE5       30.14S WCI  10
MONROE         CLEAR     14  12  92 S7        30.11S WCI   4
JANESVILLE     CLEAR     12  10  92 SE5       30.15S WCI   4
$$

WIZ051-052-058>065-066-070>072-260400-
SOUTHEAST WISCONSIN

CITY           SKY/WX    TMP DP  RH WIND       PRES   REMARKS
MILWAUKEE      MOCLDY    20  14  77 SW6       30.17R WCI  12
WAUKESHA       CLOUDY    18  16  93 CALM      30.16R
MILWAUKEE/TIMM CLOUDY    21  16  79 CALM      30.17S
RACINE         CLOUDY    21  15  78 W5        30.18S WCI  15
BURLINGTON     CLOUDY    17  14  89 SW5       30.17R WCI  10
KENOSHA        CLOUDY    20  16  84 SW6       30.17R WCI  12
FOND DU LAC    CLOUDY    20  14  77 SW5       30.13R WCI  13
SHEBOYGAN      CLOUDY    20  15  81 W5        30.15R WCI  13
WEST BEND      CLOUDY    21  16  79 CALM      30.15R
JUNEAU         PTCLDY    15  13  92 SE3       30.14R
$$

LSZ147-162-260400-
LAKE SUPERIOR

STATION/POSITION TIME  TEMP    WIND        PRES    WAVE
                       AIR SEA DIR/SP/G            HT/PER
                 (UTC) (F)     (DEG/KT/KT) (MB)    (FT/S)
DEVILS ISLAND    0300   23     230/ 13/ 17 1018.9R
PORT WING        0200   17     140/  2/  4 1018.3
SAXON HARBOR     0240   13        CALM     1018.6R
$$

LMZ867-665-643>646-260400-
LAKE MICHIGAN

STATION/POSITION TIME  TEMP    WIND        PRES    WAVE
                       AIR SEA DIR/SP/G            HT/PER
                 (UTC) (F)     (DEG/KT/KT) (MB)    (FT/S)
CHAMBERS ISLAND  0200   24     230/  8/ 12 1019.6R
N MID LAKE BUOY  0250   28 42  230/  6/ 10 1020.4R   1/ 6
NORTHPORT PIER   0303   25     190/  1/  6 1020.0R
SISTER BAY       0113             CALM       N/A
ALGOMA LAKESHORE 0213          270/  8/ 10   N/A
KEWAUNEE LAKESHO 0300   21     270/  3/  5 1019.9R
SHEBOYGAN LAKESH 0300   21 36  250/  6/  7 1022.6R
PORT WASHINGTON  0200   22     300/  4/  7 1022.0
MILWAUKEE LAKESH 0300   22     250/  6/  8   N/A
S MID LAKE BUOY  0250   28 42  230/  8/ 12 1022.4R   2/ 6
KENOSHA   LAKESH 0300   21     210/  7/  9 1021.7S
$$

TC  - TEMPERATURE IN CELSIUS
VSB - VISIBILITY IN STATUTE MILES
WCI - WIND CHILL INDEX
HX  - HEAT INDEX




USA.gov is the U.S. government's official web portal to all federal, state and local government web resources and services.